[Date Prev][Date Next][Thread Prev][Thread Next] - [Date Index][Thread Index][Author Index]

2 Line ISS Keps 6-10



ISS
1 25544U 98067A   03161.42435185  .00016930  00000-0  21605-3 0  1025
2 25544  51.6331  54.2216 0006588 236.0412 112.9236 15.59381862259947


----
Via the sarex mailing list at AMSAT.ORG courtesy of AMSAT-NA.
To unsubscribe, send "unsubscribe sarex" to Majordomo@amsat.org



AMSAT Top AMSAT Home